{"data":{"norad_id":64286,"intl_designator":"2025-121D","name":"HULIANWANG DIGUI-33","alt_names":[],"object_type":"PAYLOAD","status":"ACTIVE","operator":null,"country":"PRC","launch_date":"2025-06-05","launch_site_code":"TAISC","launch_vehicle":null,"mission":null,"orbit_class":"UNKNOWN","rcs_meters":null,"size_class":null,"mass_kg":null,"dimensions":null,"purposes":[],"wikipedia_slug":null,"has_3d_model":false,"image_url":null,"decayed_at":null,"tle_current":{"epoch":"2026-09-21T22:08:46.159008Z","epoch_age_seconds":65505,"freshness":"FRESH","line1":"1 64286U 25121D   26264.92275647  .00000044  00000+0  69527-4 0  9999","line2":"2 64286  86.5061 341.0127 0001662 108.6616 251.4699 13.24412297 62969","mean_motion":13.24412297,"eccentricity":0.0001662,"inclination_deg":86.5061,"raan_deg":341.0127,"arg_perigee_deg":108.6616,"mean_anomaly_deg":251.4699,"bstar":6.9527e-5,"rev_number":6296,"period_min":108.72747129137,"perigee_km":1166.6593070115,"apogee_km":1169.1676141846,"semimajor_km":7546.0504605981,"source":"CELESTRAK","updated_at":"2026-09-22T09:00:29.676032Z"}}}